DW8201 Weather Reports


time (UTC)temp
F
wind
direction
speed
knots
gust
knots
rain 1hr
in
rain 24hr
in
rain mn
in
humidity
%
barometer
mb
20260503021234 57 59 0.0 0.0 0.00 0.13 0.00 93 1010.4
20260503020728 57 306 0.0 0.0 0.00 0.13 0.00 93 1010.5
20260503020220 57 306 0.0 0.0 0.00 0.13 0.00 92 1010.6
20260503015811 57 306 0.0 0.0 0.00 0.13 0.00 92 1010.7
20260503015307 57 306 0.0 0.0 0.00 0.13 0.00 92 1010.6
20260503014801 57 306 0.0 0.0 0.00 0.13 0.00 92 1010.6
20260503014252 57 306 0.0 0.0 0.00 0.13 0.00 91 1010.7
20260503014142 57 306 0.0 0.0 0.00 0.13 0.00 92 1010.8
20260503013238 57 306 0.0 0.0 0.00 0.13 0.00 91 1010.8
20260503012733 57 306 0.0 0.0 0.00 0.13 0.00 91 1010.9
20260503012627 57 306 0.0 0.0 0.00 0.13 0.00 91 1010.9
20260503012116 57 306 0.0 0.0 0.00 0.13 0.00 91 1011.0
20260503011215 58 306 0.0 0.0 0.00 0.13 0.00 91 1011.0
20260503010710 58 300 0.0 0.0 0.00 0.13 0.00 91 1011.0
20260503010307 58 102 0.0 0.0 0.00 0.13 0.00 91 1011.0
20260503005757 58 102 0.0 0.9 0.00 0.13 0.00 91 1011.0
20260503005251 58 102 0.0 0.9 0.00 0.13 0.00 91 1011.1
20260503004741 58 102 0.0 0.9 0.00 0.13 0.00 91 1011.1
20260503004237 58 102 0.9 2.6 0.00 0.13 0.00 91 1011.0
20260503003731 58 102 1.7 6.1 0.00 0.13 0.00 91 1011.0
20260503003223 58 106 1.7 6.1 0.00 0.13 0.00 91 1011.1
20260503002720 59 108 2.6 7.8 0.00 0.13 0.00 91 1011.0
20260503002209 59 62 2.6 7.8 0.00 0.13 0.00 91 1011.1
20260503001659 59 111 1.7 6.1 0.00 0.13 0.00 92 1011.1
20260503001249 59 152 0.9 3.5 0.00 0.13 0.00 92 1011.1
20260503000743 59 116 0.9 4.3 0.00 0.13 0.00 92 1011.3
20260503000235 59 97 0.9 4.3 0.00 0.13 0.00 92 1011.4
20260502235727 59 100 0.0 4.3 0.00 0.13 0.00 92 1011.4
20260502235222 59 106 0.9 4.3 0.00 0.13 0.00 91 1011.6
20260502234715 59 98 0.9 4.3 0.00 0.13 0.00 91 1011.6
20260502234207 59 75 0.9 4.3 0.00 0.13 0.00 91 1011.7
20260502233656 59 81 0.9 5.2 0.00 0.13 0.00 91 1011.7
20260502233149 59 112 1.7 6.1 0.00 0.13 0.00 91 1011.8
20260502232742 59 93 1.7 6.1 0.00 0.13 0.00 91 1011.8
20260502232233 59 90 1.7 6.1 0.00 0.13 0.00 91 1011.8
20260502231725 59 112 1.7 6.1 0.00 0.13 0.00 91 1011.8
20260502231218 59 92 0.9 4.3 0.00 0.13 0.00 91 1011.8
20260502230708 59 114 0.9 3.5 0.00 0.13 0.00 91 1011.8
20260502230201 59 59 0.9 3.5 0.00 0.13 0.00 91 1011.9
20260502225647 59 17 1.7 3.5 0.00 0.13 0.00 92 1012.0
20260502225640 59 89 0.9 3.5 0.00 0.13 0.00 92 1012.0
20260502225032 59 76 0.9 4.3 0.00 0.13 0.00 92 1012.1
20260502224733 59 81 0.9 4.3 0.00 0.13 0.00 92 1012.0
20260502223722 59 68 1.7 6.1 0.00 0.13 0.00 92 1012.1
20260502223215 59 73 0.9 6.1 0.00 0.13 0.00 92 1012.1
20260502222705 59 64 0.0 3.5 0.00 0.13 0.00 92 1012.2
20260502222158 59 42 0.0 1.7 0.00 0.13 0.00 92 1012.3
20260502221649 59 42 0.9 2.6 0.00 0.13 0.00 92 1012.5
20260502221144 59 42 0.9 2.6 0.00 0.13 0.00 92 1012.6
20260502220733 59 324 0.0 0.0 0.00 0.13 0.00 92 1012.8
20260502220227 59 324 0.0 0.0 0.00 0.13 0.00 92 1012.9
20260502215716 59 324 0.0 0.0 0.00 0.13 0.13 92 1013.0
20260502215205 59 324 0.0 0.0 0.00 0.13 0.13 91 1013.1
20260502215051 59 321 0.0 0.0 0.00 0.13 0.13 91 1013.2
20260502214146 59 321 0.0 0.0 0.00 0.13 0.13 91 1013.2
20260502213640 59 321 0.0 1.7 0.00 0.13 0.13 91 1013.2
20260502213230 60 310 0.9 5.2 0.00 0.13 0.13 91 1013.3
20260502213115 60 288 1.7 5.2 0.01 0.13 0.13 90 1013.3
20260502212211 60 278 1.7 5.2 0.01 0.13 0.13 90 1013.2
20260502211703 60 176 2.6 7.0 0.01 0.13 0.13 90 1012.4
20260502211154 60 177 2.6 7.0 0.01 0.13 0.13 90 1012.3
20260502210646 60 122 1.7 6.1 0.01 0.13 0.13 90 1012.2
20260502210139 60 101 1.7 5.2 0.01 0.13 0.13 90 1012.1
20260502205727 60 133 2.6 5.2 0.01 0.13 0.13 90 1012.2
20260502205218 60 115 1.7 5.2 0.02 0.13 0.13 90 1012.2
20260502205003 60 114 1.7 4.3 0.02 0.13 0.13 89 1012.2
20260502204801 60 111 1.7 4.3 0.02 0.13 0.13 90 1012.1
20260502203654 61 99 1.7 4.3 0.04 0.13 0.13 89 1012.1
20260502203145 61 112 1.7 5.2 0.06 0.13 0.13 89 1012.1
20260502202638 61 91 1.7 6.1 0.06 0.12 0.12 89 1012.1
20260502202133 61 110 0.9 6.1 0.09 0.12 0.12 89 1012.3
20260502201723 61 68 0.0 0.0 0.12 0.12 0.12 88 1012.2
20260502201210 62 68 0.0 0.0 0.12 0.12 0.12 88 1012.3
20260502200702 62 68 0.0 0.0 0.12 0.12 0.12 88 1012.3
20260502200152 62 68 0.0 0.0 0.12 0.12 0.12 87 1012.2
20260502195646 62 43 0.0 0.0 0.12 0.12 0.12 87 1012.1
20260502195135 62 43 0.0 0.0 0.11 0.11 0.11 86 1012.2
20260502194727 62 43 0.0 0.0 0.11 0.11 0.11 85 1012.4
20260502194231 63 43 0.0 0.0 0.10 0.10 0.10 84 1012.6
20260502193720 63 272 0.0 0.0 0.09 0.09 0.09 83 1012.7
20260502193158 64 272 1.7 7.0 0.07 0.07 0.08 81 1012.8
20260502192647 65 272 3.5 9.6 0.06 0.06 0.06 79 1012.9
20260502192137 66 236 4.3 9.6 0.03 0.03 0.03 76 1013.0
20260502191632 67 163 3.5 7.8 0.00 0.00 0.00 69 1012.9
20260502191226 67 233 4.3 7.8 0.00 0.00 0.00 69 1012.8
20260502190717 67 172 4.3 9.6 0.00 0.00 0.00 68 1012.6
20260502190508 67 159 4.3 10.4 0.00 0.00 0.00 68 1012.6
20260502185958 67 158 5.2 10.4 0.00 0.00 0.00 68 1012.6
20260502185147 68 124 5.2 10.4 0.00 0.00 0.00 67 1012.6
20260502184734 69 145 6.1 12.2 0.00 0.00 0.00 65 1012.6
20260502184227 69 135 5.2 12.2 0.00 0.00 0.00 64 1012.6
20260502183819 70 116 4.3 9.6 0.00 0.00 0.00 64 1012.7
20260502183312 70 140 7.0 13.9 0.00 0.00 0.00 66 1012.7
20260502183112 71 101 7.0 15.6 0.00 0.00 0.00 66 1012.7
20260502182251 73 189 5.2 15.6 0.00 0.00 0.00 64 1012.7
20260502181743 74 125 2.6 11.3 0.00 0.00 0.00 62 1012.6
20260502181235 74 108 0.0 5.2 0.00 0.00 0.00 55 1012.5
20260502180727 74 262 0.0 0.9 0.00 0.00 0.00 55 1012.3
20260502180314 75 262 0.0 0.9 0.00 0.00 0.00 54 1012.3
20260502170226 76 256 1.7 5.2 0.00 0.00 0.00 53 1012.3
20260502164250 77 204 2.6 5.2 0.00 0.00 0.00 52 1012.6
20260502163741 77 168 1.7 5.2 0.00 0.00 0.00 52 1012.7
20260502163234 77 253 2.6 7.8 0.00 0.00 0.00 51 1012.7
20260502162830 78 192 1.7 7.0 0.00 0.00 0.00 51 1012.9
20260502162728 78 264 2.6 7.8 0.00 0.00 0.00 50 1012.8
20260502161807 77 272 1.7 7.0 0.00 0.00 0.00 51 1013.0
20260502161300 77 193 1.7 4.3 0.00 0.00 0.00 51 1013.1
20260502160759 78 183 3.5 8.7 0.00 0.00 0.00 51 1013.2
20260502160752 78 214 2.6 6.1 0.00 0.00 0.00 51 1013.2
20260502160448 78 195 3.5 8.7 0.00 0.00 0.00 50 1013.2
20260502152239 78 147 4.3 10.4 0.00 0.00 0.00 50 1013.7
20260502151943 78 166 3.5 8.7 0.00 0.00 0.00 50 1013.8
20260502151741 78 193 4.3 8.7 0.00 0.00 0.00 50 1013.8
20260502150712 77 212 2.6 6.1 0.00 0.00 0.00 52 1014.0
20260502150205 78 235 2.6 6.1 0.00 0.00 0.00 51 1014.1
20260502130643 74 193 3.5 7.8 0.00 0.00 0.00 58 1015.5
20260502130134 74 236 3.5 7.8 0.00 0.00 0.00 59 1015.5
20260502123647 73 175 4.3 8.7 0.00 0.00 0.00 58 1015.7
20260502123139 74 186 5.2 10.4 0.00 0.00 0.00 58 1015.9
20260502122628 74 203 5.2 12.2 0.00 0.00 0.00 58 1016.0
20260502122118 74 193 4.3 12.2 0.00 0.00 0.00 58 1016.0
20260502121616 75 189 5.2 10.4 0.00 0.00 0.00 57 1016.0
20260502121207 75 181 5.2 10.4 0.00 0.00 0.00 57 1016.0
20260502120656 75 199 5.2 9.6 0.00 0.00 0.00 57 1016.0
20260502120651 76 159 5.2 9.6 0.00 0.00 0.00 56 1016.0
20260502115631 76 206 6.1 11.3 0.00 0.00 0.00 56 1016.1
20260502115137 75 154 5.2 12.2 0.00 0.00 0.00 56 1016.1
20260502114615 75 156 4.3 12.2 0.00 0.00 0.00 58 1016.1
20260502114112 75 263 4.3 7.8 0.00 0.00 0.00 56 1016.2
20260502113708 75 178 3.5 7.8 0.00 0.00 0.00 57 1016.2
20260502113159 75 171 3.5 6.1 0.00 0.00 0.00 56 1016.2
20260502112649 75 163 3.5 8.7 0.00 0.00 0.00 56 1016.3
20260502112132 75 163 3.5 8.7 0.00 0.00 0.00 56 1016.4
20260502111628 75 211 2.6 7.8 0.00 0.00 0.00 57 1016.4
20260502111622 75 163 1.7 6.1 0.00 0.00 0.00 57 1016.3
20260502110610 75 216 3.5 7.8 0.00 0.00 0.00 57 1016.5
20260502110603 74 192 4.3 8.7 0.00 0.00 0.00 58 1016.5
20260502110300 75 187 3.5 7.8 0.00 0.00 0.00 58 1016.5
20260502105152 74 197 4.3 8.7 0.00 0.00 0.00 59 1016.6
20260502104645 74 176 3.5 7.8 0.00 0.00 0.00 58 1016.6
20260502104136 74 183 3.5 6.1 0.00 0.00 0.00 58 1016.7
20260502103622 74 201 2.6 6.1 0.00 0.00 0.00 58 1016.7
20260502103117 74 102 3.5 9.6 0.00 0.00 0.00 58 1016.7
20260502102606 74 174 4.3 9.6 0.00 0.00 0.00 59 1016.9
20260502102102 73 176 3.5 7.0 0.00 0.00 0.00 60 1016.9
20260502101602 73 190 2.6 7.0 0.00 0.00 0.00 60 1016.9
20260502101149 73 219 3.5 7.0 0.00 0.00 0.00 60 1017.0
20260502100643 72 213 3.5 7.0 0.00 0.00 0.00 59 1017.1
20260502100530 72 210 2.6 6.1 0.00 0.00 0.00 61 1017.0
20260502091107 70 180 3.5 7.8 0.00 0.00 0.00 62 1017.4
20260502090559 70 170 2.6 7.0 0.00 0.00 0.00 61 1017.4
20260502090205 69 196 2.6 7.0 0.00 0.00 0.00 61 1017.5
20260502071055 63 199 3.5 9.6 0.00 0.00 0.00 64 1017.9
20260502070545 62 201 3.5 9.6 0.00 0.00 0.00 64 1017.9
20260502070146 62 166 2.6 6.1 0.00 0.00 0.00 65 1017.9
20260502065623 61 195 1.7 4.3 0.00 0.00 0.00 66 1017.9
20260502065117 60 195 1.7 4.3 0.00 0.00 0.00 66 1018.0
20260502064607 60 203 2.6 4.3 0.00 0.00 0.00 65 1017.9
20260502064059 60 195 2.6 4.3 0.00 0.00 0.00 65 1017.9
20260502063552 59 176 2.6 4.3 0.00 0.00 0.00 65 1017.8
20260502063044 58 162 1.7 4.3 0.00 0.00 0.00 64 1017.8
20260502062550 57 194 0.9 3.5 0.00 0.00 0.00 65 1017.7
20260502062028 57 148 0.9 2.6 0.00 0.00 0.00 65 1017.7
20260502061619 57 156 0.9 3.5 0.00 0.00 0.00 64 1017.8
20260502061116 56 184 1.7 5.2 0.00 0.00 0.00 64 1017.9
20260502060912 56 170 1.7 5.2 0.00 0.00 0.00 65 1017.9
20260502060105 56 149 1.7 5.2 0.00 0.00 0.00 64 1017.9
20260502055551 56 178 1.7 5.2 0.00 0.00 0.00 64 1017.9
20260502055441 56 185 1.7 3.5 0.00 0.00 0.00 64 1017.8
20260502054535 56 155 1.7 4.3 0.00 0.00 0.00 63 1017.9
20260502054427 56 170 0.9 4.3 0.00 0.00 0.00 63 1017.8
20260502053521 56 158 0.0 0.0 0.00 0.00 0.00 65 1017.7
20260502053016 56 158 0.0 0.0 0.00 0.00 0.00 64 1017.6
20260502052612 55 158 0.0 1.7 0.00 0.00 0.00 63 1017.7
20260502052100 55 158 0.9 2.6 0.00 0.00 0.00 63 1017.6
20260502051554 55 164 0.9 3.5 0.00 0.00 0.00 63 1017.5
20260502051044 54 168 0.9 3.5 0.00 0.00 0.00 63 1017.6
20260502050536 54 150 0.9 3.5 0.00 0.00 0.00 63 1017.7
20260502050030 53 168 0.9 4.3 0.00 0.00 0.00 64 1017.6
20260502045521 53 141 0.9 4.3 0.00 0.00 0.00 64 1017.5
20260502045012 53 137 0.9 2.6 0.00 0.00 0.00 65 1017.5
20260502044503 52 158 1.7 2.6 0.00 0.00 0.00 65 1017.4
20260502044056 52 153 0.9 2.6 0.00 0.00 0.00 65 1017.4
20260502043548 51 136 0.0 2.6 0.00 0.00 0.00 66 1017.5
20260502043040 51 155 0.0 1.7 0.00 0.00 0.00 67 1017.5
20260502042834 51 143 0.0 2.6 0.00 0.00 0.00 67 1017.6
20260502042023 51 130 0.9 3.5 0.00 0.00 0.00 68 1017.5
20260502041517 51 139 0.9 3.5 0.00 0.00 0.00 68 1017.6
20260502041012 51 133 0.0 0.0 0.00 0.00 0.00 68 1017.6
20260502040518 51 183 0.0 0.0 0.00 0.00 0.00 68 1017.6
20260502035958 51 135 0.0 0.0 0.00 0.00 0.00 68 1017.6
20260502035851 51 124 0.0 1.7 0.00 0.00 0.00 68 1017.7
20260502035040 51 131 0.0 1.7 0.00 0.00 0.00 68 1017.8
20260502034826 51 131 0.0 0.0 0.00 0.00 0.00 67 1017.8
20260502034625 51 131 0.0 0.0 0.00 0.00 0.00 68 1017.7
20260502033915 51 131 0.0 0.0 0.00 0.00 0.00 67 1017.9
20260502033011 51 145 0.0 1.7 0.00 0.00 0.00 67 1017.9
20260502032859 51 145 0.9 2.6 0.00 0.00 0.00 67 1018.0
20260502031954 51 168 1.7 3.5 0.00 0.00 0.00 66 1017.9
20260502031548 52 140 1.7 3.5 0.00 0.00 0.00 66 1017.8
20260502031038 52 143 0.9 3.5 0.00 0.00 0.00 66 1017.9
20260502030533 52 140 0.9 3.5 0.00 0.00 0.00 65 1017.9
20260502030027 52 127 1.7 3.5 0.00 0.00 0.00 66 1017.9
20260502025520 52 157 1.7 3.5 0.00 0.00 0.00 65 1017.9
20260502025408 52 134 1.7 2.6 0.00 0.00 0.00 65 1017.9
20260502024504 52 139 0.9 3.5 0.00 0.00 0.00 65 1018.1
20260502023955 52 139 0.0 3.5 0.00 0.00 0.00 65 1018.1
20260502023452 52 150 0.0 0.0 0.00 0.00 0.00 65 1018.1
20260502023044 52 148 0.0 0.0 0.00 0.00 0.00 64 1018.1
20260502022539 53 148 0.0 0.0 0.00 0.00 0.00 64 1018.0
20260502022034 53 148 0.0 0.0 0.00 0.00 0.00 64 1018.1
20260502021821 53 145 0.9 2.6 0.00 0.00 0.00 63 1018.2